This is the latest recevied weather packets stored in our database for station/object KB1JDX. If no packets are shown the sender has not sent any weather packets the latest 10 day(s).
| Time | Temp. | Humidity | Pressure | Rain* | Wind** | Luminosity | Snow |
|---|---|---|---|---|---|---|---|
| 1777846834 | 11.11° C | 42% | 1008.5 hPa | 0 mm | 2.24 m/s, 300° | - | - |
| 1777846766 | 11.11° C | 42% | 1008.7 hPa | 0 mm | 3.58 m/s, 308° | - | - |
| 1777845634 | 11.67° C | 41% | 1008.4 hPa | 0 mm | 2.24 m/s, 302° | - | - |
| 1777844434 | 11.67° C | 41% | 1008.1 hPa | 0 mm | 0.89 m/s, 291° | - | - |
| 1777843233 | 12.22° C | 41% | 1008 hPa | 0 mm | 2.68 m/s, 284° | - | - |
| 1777843166 | 12.22° C | 41% | 1008 hPa | 0 mm | 2.68 m/s, 284° | - | - |
| 1777840834 | 11.67° C | 43% | 1007.5 hPa | 0 mm | 0 m/s | - | - |
| 1777839634 | 11.67° C | 41% | 1007.2 hPa | 0 mm | 3.58 m/s, 313° | - | - |
| 1777839566 | 11.67° C | 42% | 1007.3 hPa | 0 mm | 4.02 m/s, 297° | - | - |
| 1777838434 | 12.22° C | 40% | 1007.1 hPa | 0 mm | 0.45 m/s, 307° | - | - |
| 1777837234 | 11.67° C | 44% | 1007.1 hPa | 0 mm | 0 m/s | - | - |
| 1777836034 | 11.67° C | 47% | 1007.1 hPa | 0 mm | 0 m/s | - | - |
| 1777835966 | 11.67° C | 46% | 1007 hPa | 0 mm | 0 m/s | - | - |
| 1777834834 | 11.67° C | 43% | 1007 hPa | 0 mm | 2.24 m/s, 294° | - | - |
| 1777833634 | 11.11° C | 44% | 1007.1 hPa | 0 mm | 2.24 m/s, 303° | - | - |
| 1777832434 | 11.11° C | 46% | 1007 hPa | 0 mm | 1.79 m/s, 286° | - | - |
| 1777832366 | 11.11° C | 46% | 1007.1 hPa | 0 mm | 4.02 m/s, 294° | - | - |
| 1777831234 | 11.67° C | 47% | 1006.9 hPa | 0 mm | 2.68 m/s, 289° | - | - |
| 1777830032 | 12.22° C | 46% | 1006.8 hPa | 0 mm | 0 m/s | - | - |
| 1777828832 | 11.67° C | 48% | 1006.7 hPa | 0 mm | 2.24 m/s, 306° | - | - |
| 1777828766 | 11.67° C | 48% | 1006.8 hPa | 0 mm | 3.13 m/s, 306° | - | - |
| 1777827632 | 11.11° C | 48% | 1006.8 hPa | 0 mm | 0 m/s | - | - |
| 1777826434 | 11.67° C | 48% | 1006.8 hPa | 0 mm | 0 m/s | - | - |
| 1777825233 | 11.11° C | 48% | 1006.9 hPa | 0 mm | 3.13 m/s, 306° | - | - |
| 1777825166 | 11.11° C | 49% | 1006.8 hPa | 0 mm | 0 m/s | - | - |
* Rain latest hour (hover to see other rain measurements)
** Current wind speed in m/s (hover to see current wind gust speed)